Location: Sweet Grass
(48.9965°N, 111.9649°W)
Time: 07:56:18
(UTC+00:00)

SPROUT - Pass Details

Date: 06 April 2023
Orbit: 558 x 566 km, 98.0° (Epoch: 28 May)

Event Time Altitude Azimuth Distance (km) Brightness Sun altitude
Exits shadow 07:20:39 13° 34° (NE) 1,707 ? -34.6°
Drops below altitude 10° 07:21:31 10° 23° (NNE) 1,891 ? -34.6°
Enters shadow 08:22:47 -57° 166° (SSE) 11,338 ? -33.4°
